[[{"header":{"parameterUnit":"m.s-1","parameterCategory":1,"la1":30.2991,"la2":30.254,"lo1":-89.0895,"lo2":-89.0444,"dy":0.0017,"dx":0.0017,"nx":28,"ny":28,"refTime":"2026-02-16T09:00:00:Z","depth":0,"parameterNumber":2,"parameterNumberName":"U-component_of_WINDS"},"data":[0,0,0,0,0,0,0,0,0,0,0,0,0,0,0,0,0,0,0,0,0,0,0,0,0,0,0,0,0,0,0,0,0,0,0,0,0,0,0,0,0,0,0,0,0,0,0,0,0,0,0,0,0,0,0,0,0,0,-0.4871,-0.4871,0,-0.4858,-0.4858,-0.4858,-0.4862,-0.4862,-0.4863,-0.4863,-0.4849,-0.4848,-0.4848,0,0,0,0,0,0,0,0,0,0,0,0,0,-0.4901,-0.4901,-0.4871,-0.4871,-0.4871,-0.4858,-0.4858,-0.4857,-0.4862,-0.4862,-0.4863,-0.4863,-0.4849,-0.4848,-0.4848,0,0,0,0,0,0,0,0,0,0,0,0,0,-0.4888,-0.49,-0.4871,-0.4872,-0.4872,-0.4858,-0.4858,-0.4857,-0.4862,-0.4862,-0.4863,-0.4863,-0.4849,-0.4849,-0.4848,-0.4833,0,0,-0.4845,-0.4844,0,0,0,0,0,0,0,0,-0.4889,-0.4887,-0.4872,-0.4872,-0.4871,-0.4862,-0.4863,-0.4849,-0.4862,-0.4866,-0.4863,-0.4863,-0.4853,-0.4852,-0.4848,-0.4832,-0.4832,-0.4845,-0.4844,-0.4844,-0.4843,0,0,0,0,0,0,0,-0.489,-0.4888,-0.4866,-0.4872,-0.4871,-0.4873,-0.4871,-0.4861,-0.4857,-0.4865,-0.4866,-0.4864,-0.4853,-0.4849,-0.4848,-0.4831,-0.4845,-0.4844,-0.4843,-0.4843,-0.4803,-0.4803,0,0,0,0,0,0,-0.4891,-0.4888,-0.4866,-0.4866,-0.4881,-0.4872,-0.487,-0.4865,-0.4857,-0.4856,-0.4864,-0.4864,-0.4851,-0.4849,-0.4848,-0.483,-0.4844,-0.4843,-0.4842,-0.4804,-0.4803,-0.4802,0,0,0,0,0,0,-0.4891,-0.4889,-0.4867,-0.4877,-0.4874,-0.4871,-0.4864,-0.4864,-0.486,-0.4856,-0.4855,-0.486,-0.4851,-0.4849,-0.4837,-0.483,-0.4842,-0.4841,-0.4804,-0.4803,-0.4803,-0.4795,0,0,0,0,0,0,-0.4892,-0.4889,-0.4883,-0.4877,-0.4874,-0.4856,-0.4864,-0.4864,-0.4859,-0.4859,-0.4853,-0.4852,-0.4851,-0.4838,-0.4836,-0.4828,-0.4841,-0.4805,-0.4804,-0.4803,-0.4796,-0.4794,-0.4792,0,0,0,0,0,-0.4893,-0.4881,-0.4883,-0.488,-0.4867,-0.4856,-0.4854,-0.4853,-0.4858,-0.4852,-0.485,-0.4852,-0.4831,-0.4837,-0.4834,-0.4827,-0.4805,-0.4804,-0.4803,-0.4796,-0.4794,-0.4792,0,0,0,0,0,0,-0.4887,-0.488,-0.4882,-0.4868,-0.4862,-0.4856,-0.4849,-0.4851,-0.4844,-0.4845,-0.4844,-0.4843,-0.483,-0.4827,-0.4834,-0.4812,-0.4819,-0.4817,-0.4815,-0.4812,-0.4811,-0.4812,-0.484,0,0,0,0,0,-0.4884,-0.4875,-0.487,-0.4858,-0.4855,-0.4853,-0.4848,-0.4848,-0.4842,-0.484,-0.4836,-0.4831,-0.4823,-0.4817,-0.481,-0.4795,-0.4794,-0.4789,-0.4787,-0.4786,-0.4784,-0.4777,-0.4775,-0.4799,-0.4799,-0.4799,0,0,-0.4877,-0.4873,-0.4868,-0.4857,-0.4853,-0.4844,-0.4851,-0.4841,-0.4835,-0.4839,-0.4827,-0.4824,-0.4818,-0.4804,-0.4798,-0.4801,-0.4778,-0.4785,-0.4784,-0.4783,-0.4776,-0.4773,-0.4771,-0.4798,-0.4798,-0.4798,0,0,-0.4861,-0.4857,-0.4846,-0.4842,-0.4836,-0.4834,-0.4832,-0.4826,-0.4824,-0.4812,-0.4815,-0.4807,-0.4793,-0.4789,-0.4785,-0.4768,-0.477,-0.4765,-0.4757,-0.4749,-0.4747,-0.4746,-0.474,-0.4738,-0.4764,-0.4764,-0.4764,0,-0.4854,-0.4841,-0.4841,-0.4831,-0.4827,-0.483,-0.4819,-0.4815,-0.4806,-0.4803,-0.4807,-0.479,-0.4786,-0.4772,-0.4768,-0.4764,-0.4762,-0.4766,-0.4748,-0.4746,-0.4744,-0.4739,-0.4737,-0.4763,-0.4763,-0.4763,-0.4763,0,-0.4833,-0.4824,-0.4816,-0.4808,-0.4803,-0.4793,-0.4791,-0.4786,-0.4786,-0.4784,-0.4773,-0.4768,-0.476,-0.4756,-0.4757,-0.4742,-0.4744,-0.4748,-0.4754,-0.4742,-0.4736,-0.4734,-0.4763,-0.4763,-0.4763,-0.4763,0,0,-0.4812,-0.4804,-0.4801,-0.4798,-0.4791,-0.4784,-0.4775,-0.4767,-0.4762,-0.4756,-0.4748,-0.4737,-0.474,-0.4736,-0.4736,-0.4729,-0.4716,-0.4733,-0.4733,-0.4731,-0.47,-0.4698,-0.4695,-0.4718,-0.4717,-0.4717,-0.4701,0,-0.4795,-0.4778,-0.4778,-0.4763,-0.4755,-0.4758,-0.475,-0.4745,-0.4743,-0.4736,-0.4734,-0.4726,-0.473,-0.4728,-0.4722,-0.4719,-0.471,-0.472,-0.471,-0.471,-0.4712,-0.4693,-0.469,-0.4675,-0.4699,-0.4699,-0.4698,0,-0.4774,-0.4767,-0.4751,-0.4746,-0.4743,-0.4735,-0.4728,-0.4722,-0.4716,-0.4715,-0.471,-0.4711,-0.4702,-0.4709,-0.4696,-0.4703,-0.4699,-0.4697,-0.4697,-0.4696,-0.4703,-0.4691,-0.467,-0.4668,-0.4695,-0.4695,-0.4696,0,-0.476,-0.4748,-0.4736,-0.4733,-0.4727,-0.4722,-0.4719,-0.4714,-0.4709,-0.4703,-0.47,-0.4693,-0.4689,-0.4684,-0.4683,-0.4688,-0.467,-0.4677,-0.4669,-0.4669,-0.4665,-0.4666,-0.4643,-0.4663,-0.4663,-0.4663,-0.4663,0,-0.4742,-0.4732,-0.473,-0.4724,-0.4713,-0.4713,-0.4702,-0.4699,-0.4695,-0.4688,-0.469,-0.4683,-0.4683,-0.4676,-0.4675,-0.4665,-0.4663,-0.4662,-0.4662,-0.4662,-0.4662,-0.466,-0.4661,-0.4662,-0.4662,-0.4662,-0.4662,0,-0.4725,-0.4723,-0.4712,-0.4707,-0.4705,-0.4698,-0.4694,-0.4687,-0.4686,-0.4677,-0.4675,-0.4672,-0.4664,-0.4663,-0.4654,-0.4653,-0.4641,-0.4642,-0.4643,-0.4643,-0.4635,-0.4636,-0.4611,-0.4608,-0.4629,-0.4629,-0.4628,0,-0.4713,-0.4706,-0.47,-0.4696,-0.4693,-0.4685,-0.4681,-0.468,-0.4676,-0.4669,-0.4664,-0.4656,-0.465,-0.4637,-0.4635,-0.4628,-0.4629,-0.462,-0.4628,-0.4628,-0.4629,-0.4629,-0.4629,-0.4619,-0.4619,-0.4618,-0.4618,0,-0.4693,-0.4693,-0.4686,-0.4679,-0.4674,-0.4668,-0.4663,-0.4659,-0.4659,-0.4653,-0.4645,-0.464,-0.4631,-0.4624,-0.4617,-0.4614,-0.4616,-0.4616,-0.4614,-0.4614,-0.4615,-0.4614,-0.4639,-0.4617,-0.4617,-0.4617,-0.4617,-0.4617,-0.4678,-0.4672,-0.4667,-0.466,-0.4656,-0.4651,-0.4645,-0.4643,-0.4637,-0.4629,-0.4629,-0.4621,-0.4616,-0.4607,-0.4604,-0.4597,-0.46,-0.4597,-0.4596,-0.4596,-0.4595,-0.4616,-0.4596,-0.4596,-0.4596,-0.4596,-0.4596,0,-0.4658,-0.4655,-0.4649,-0.4642,-0.4636,-0.4639,-0.4633,-0.4628,-0.4621,-0.4616,-0.461,-0.4601,-0.4594,-0.4592,-0.4585,-0.458,-0.4581,-0.4578,-0.4579,-0.4578,-0.4593,-0.4595,-0.4578,-0.4578,-0.4578,-0.4578,-0.4578,-0.4578,-0.4647,-0.4636,-0.4636,-0.4624,-0.4621,-0.4613,-0.4609,-0.4605,-0.4602,-0.4592,-0.4586,-0.4584,-0.4581,-0.4574,-0.4567,-0.4567,-0.4564,-0.4561,-0.4561,-0.4575,-0.4577,-0.4579,-0.4581,-0.4561,-0.4561,-0.4547,-0.4547,-0.4547]},{"header":{"parameterUnit":"m.s-1","parameterCategory":1,"la1":30.2991,"la2":30.254,"lo1":-89.0895,"lo2":-89.0444,"dy":0.0017,"dx":0.0017,"nx":28,"ny":28,"refTime":"2026-02-16T09:00:00:Z","depth":0,"parameterNumber":3,"parameterNumberName":"V-component_of_WINDS"},"data":[0,0,0,0,0,0,0,0,0,0,0,0,0,0,0,0,0,0,0,0,0,0,0,0,0,0,0,0,0,0,0,0,0,0,0,0,0,0,0,0,0,0,0,0,0,0,0,0,0,0,0,0,0,0,0,0,0,0,-1.0964,-1.0964,0,-1.098,-1.098,-1.098,-1.0952,-1.0951,-1.095,-1.0949,-1.0965,-1.0966,-1.0967,0,0,0,0,0,0,0,0,0,0,0,0,0,-1.0908,-1.0909,-1.0964,-1.0964,-1.0964,-1.098,-1.098,-1.098,-1.0952,-1.0951,-1.095,-1.0949,-1.0964,-1.0966,-1.0967,0,0,0,0,0,0,0,0,0,0,0,0,0,-1.0929,-1.091,-1.0964,-1.0952,-1.0951,-1.098,-1.098,-1.098,-1.0952,-1.0951,-1.095,-1.0948,-1.0964,-1.0966,-1.0967,-1.1008,0,0,-1.0973,-1.0974,0,0,0,0,0,0,0,0,-1.0928,-1.0931,-1.0954,-1.0953,-1.0952,-1.0963,-1.0966,-1.099,-1.0953,-1.0952,-1.0949,-1.0948,-1.0965,-1.0967,-1.0973,-1.1009,-1.1009,-1.0974,-1.0975,-1.0976,-1.0976,0,0,0,0,0,0,0,-1.0926,-1.093,-1.097,-1.0954,-1.0953,-1.0946,-1.0947,-1.097,-1.0966,-1.0952,-1.095,-1.0952,-1.0964,-1.0971,-1.0973,-1.1009,-1.0973,-1.0975,-1.0976,-1.0977,-1.1081,-1.1083,0,0,0,0,0,0,-1.0927,-1.0929,-1.097,-1.0971,-1.0936,-1.0948,-1.095,-1.0961,-1.0966,-1.0965,-1.0954,-1.0951,-1.0968,-1.0971,-1.0973,-1.1023,-1.0976,-1.0977,-1.0978,-1.108,-1.1082,-1.1083,0,0,0,0,0,0,-1.0925,-1.093,-1.0969,-1.0949,-1.0954,-1.0951,-1.0963,-1.0962,-1.0969,-1.0967,-1.0966,-1.0961,-1.0967,-1.0971,-1.1,-1.1023,-1.0978,-1.098,-1.1078,-1.108,-1.1083,-1.1122,0,0,0,0,0,0,-1.0924,-1.093,-1.0946,-1.095,-1.0955,-1.0996,-1.0964,-1.0963,-1.0972,-1.0969,-1.0974,-1.0974,-1.0967,-1.0997,-1.1002,-1.1025,-1.0982,-1.1076,-1.1079,-1.1082,-1.1119,-1.1126,-1.1131,0,0,0,0,0,-1.0922,-1.0955,-1.0947,-1.0952,-1.0974,-1.0997,-1.1,-1.0992,-1.0974,-1.099,-1.0989,-1.0974,-1.1019,-1.1001,-1.1006,-1.103,-1.1074,-1.1078,-1.1082,-1.1116,-1.1124,-1.1131,0,0,0,0,0,0,-1.0953,-1.0956,-1.0946,-1.0982,-1.099,-1.0992,-1.1012,-1.1,-1.1013,-1.1009,-1.0997,-1.0999,-1.1031,-1.1033,-1.1012,-1.107,-1.1044,-1.1049,-1.1068,-1.1076,-1.1083,-1.1083,-1.0983,0,0,0,0,0,-1.0964,-1.0983,-1.0984,-1.1015,-1.102,-1.1015,-1.1025,-1.1018,-1.1025,-1.1028,-1.1029,-1.1037,-1.1053,-1.1064,-1.1079,-1.1118,-1.112,-1.1137,-1.1143,-1.1148,-1.1154,-1.1177,-1.1185,-1.1095,-1.1095,-1.1095,0,0,-1.0987,-1.0991,-1.1003,-1.1022,-1.1027,-1.1047,-1.1018,-1.104,-1.1055,-1.1031,-1.106,-1.1061,-1.1069,-1.1104,-1.1119,-1.1106,-1.1179,-1.1153,-1.1157,-1.116,-1.1181,-1.119,-1.1197,-1.1098,-1.1097,-1.1097,0,0,-1.104,-1.1044,-1.1072,-1.1078,-1.1087,-1.1084,-1.109,-1.1095,-1.1095,-1.1124,-1.1107,-1.1124,-1.1152,-1.1159,-1.1166,-1.1222,-1.121,-1.1227,-1.1261,-1.1284,-1.1291,-1.1297,-1.132,-1.1328,-1.1232,-1.1232,-1.1232,0,-1.1068,-1.1098,-1.1088,-1.1112,-1.1121,-1.1101,-1.1129,-1.1135,-1.1148,-1.1155,-1.114,-1.1176,-1.1179,-1.1217,-1.1231,-1.1236,-1.1244,-1.1228,-1.1291,-1.1297,-1.1303,-1.1324,-1.1333,-1.1234,-1.1234,-1.1233,-1.1233,0,-1.1133,-1.1154,-1.1175,-1.119,-1.1201,-1.1227,-1.1221,-1.1233,-1.1225,-1.1223,-1.1253,-1.1257,-1.1273,-1.1281,-1.1272,-1.1318,-1.131,-1.1293,-1.1267,-1.1314,-1.1334,-1.1342,-1.1237,-1.1237,-1.1236,-1.1235,0,0,-1.1208,-1.1216,-1.1225,-1.1232,-1.124,-1.1256,-1.1281,-1.1297,-1.131,-1.1318,-1.1341,-1.1365,-1.135,-1.1358,-1.135,-1.1369,-1.1417,-1.135,-1.135,-1.1365,-1.147,-1.1485,-1.1495,-1.1407,-1.1408,-1.141,-1.147,0,-1.1263,-1.1307,-1.1299,-1.1343,-1.1363,-1.1344,-1.1366,-1.1374,-1.1373,-1.139,-1.1388,-1.1407,-1.1384,-1.1389,-1.1407,-1.1407,-1.1438,-1.1402,-1.1429,-1.143,-1.1431,-1.1505,-1.152,-1.1578,-1.1478,-1.1479,-1.148,0,-1.1333,-1.1347,-1.1393,-1.14,-1.1408,-1.1428,-1.1444,-1.1459,-1.1468,-1.1466,-1.1475,-1.1464,-1.1489,-1.1461,-1.1497,-1.1473,-1.1483,-1.1484,-1.1486,-1.1491,-1.146,-1.1514,-1.1595,-1.1605,-1.1492,-1.1491,-1.149,0,-1.1387,-1.1416,-1.1448,-1.1454,-1.1462,-1.1477,-1.1481,-1.1488,-1.1499,-1.1511,-1.1519,-1.1534,-1.1543,-1.1555,-1.1548,-1.1528,-1.1587,-1.1557,-1.1587,-1.1588,-1.1603,-1.1602,-1.169,-1.1604,-1.1604,-1.1604,-1.1604,0,-1.1451,-1.1481,-1.1473,-1.1493,-1.1526,-1.1515,-1.1548,-1.155,-1.1556,-1.1576,-1.1559,-1.1578,-1.1567,-1.1585,-1.158,-1.1612,-1.1615,-1.1615,-1.1614,-1.1619,-1.1619,-1.1627,-1.1624,-1.1606,-1.1605,-1.1605,-1.1605,0,-1.1517,-1.1513,-1.1547,-1.1552,-1.1554,-1.1578,-1.1582,-1.1601,-1.1599,-1.1625,-1.163,-1.1627,-1.1648,-1.1641,-1.1663,-1.166,-1.1702,-1.1693,-1.17,-1.1699,-1.1731,-1.1729,-1.1829,-1.1842,-1.1745,-1.1746,-1.1747,0,-1.156,-1.1583,-1.1591,-1.1604,-1.1609,-1.1629,-1.1641,-1.1631,-1.1644,-1.1656,-1.1674,-1.1693,-1.1709,-1.1743,-1.1743,-1.176,-1.1754,-1.1788,-1.1757,-1.1762,-1.1758,-1.1759,-1.1762,-1.1795,-1.1796,-1.1797,-1.1798,0,-1.1638,-1.1635,-1.1653,-1.167,-1.1685,-1.1698,-1.1709,-1.172,-1.1711,-1.1726,-1.1748,-1.176,-1.1784,-1.1804,-1.182,-1.1824,-1.181,-1.1807,-1.1816,-1.1822,-1.1826,-1.1828,-1.172,-1.1806,-1.1805,-1.1804,-1.1804,-1.1804,-1.1696,-1.1716,-1.1726,-1.1746,-1.1754,-1.1765,-1.1784,-1.1785,-1.1803,-1.1822,-1.1814,-1.184,-1.1848,-1.1869,-1.1874,-1.1895,-1.1882,-1.1893,-1.1897,-1.1901,-1.1906,-1.1821,-1.1897,-1.1897,-1.1896,-1.1896,-1.1896,0,-1.1775,-1.178,-1.1799,-1.1817,-1.1833,-1.1818,-1.183,-1.1846,-1.1869,-1.1878,-1.1894,-1.192,-1.194,-1.1941,-1.1959,-1.1975,-1.197,-1.1981,-1.1981,-1.1983,-1.1915,-1.1907,-1.1985,-1.1985,-1.1985,-1.1985,-1.1985,-1.1985,-1.1819,-1.1854,-1.1852,-1.189,-1.1894,-1.1921,-1.1929,-1.194,-1.1947,-1.1977,-1.1994,-1.1995,-1.2001,-1.202,-1.2038,-1.2038,-1.2047,-1.2061,-1.2059,-1.1996,-1.1987,-1.1979,-1.1972,-1.2062,-1.2062,-1.2126,-1.2126,-1.2127]}]]